Flag for Austria Weather past 2 weeks in Murau, Styria, Austria

Now
88 °F

Passing clouds.


Feels Like: 85 °F
Forecast: 55 / 82 °F
Wind: 7 mph from South

Location: Zeltweg

Current Time: Jul 5, 2015 at 8:17:25 PM

Latest Report: Jul 5, 2015 at 6:50 PM


Visibility: 25 mi

Pressure: 30.09 "Hg (27.36 "Hg at 848m altitude)

Humidity: 29%

Dew point: 52 °F

Location of MurauLocation

Historic Weather in Murau — Graph

°F

Murau temperature yesterday

Maximum temperature yesterday: 88 °F (at 2:50 PM)
Minimum temperature yesterday: 61 °F (at 5:50 AM)
Average temperature yesterday: 76 °F

Past Weeks' High & Low Weather Summary

 TemperatureHumidityPressure
High91 °F (Jul 5, 4:50 PM)100% (Jun 26, 4:50 AM)30.39 "Hg (Jun 26, 4:50 AM)
Low41 °F (Jun 25, 5:50 AM)20% (Jul 5, 3:50 PM)29.80 "Hg (Jun 23, 4:50 AM)
Average65 °F60%30.15 "Hg
* Reported Jun 20 6:20 PM — Jul 5 6:50 PM, Murau, Weather by CustomWeather, © 2015

Note: Actual official high and low records may vary slightly from our data, if they occured in-between our weather recording intervals... More about our weather records

Advertising

Murau weather history for previous 24 hours

 ConditionsComfort  
Time TempWeatherWind HumidityBarometerVisibility
6:50 PM
Sun, Jul 5
88 °FPassing clouds.7 mph29%30.09 "Hg25 mi
5:50 PM90 °FPassing clouds.9 mph27%30.09 "Hg25 mi
4:50 PM91 °FPassing clouds.5 mph20%30.09 "Hg25 mi
3:50 PM90 °FPassing clouds.3 mph20%30.12 "Hg25 mi
2:50 PM90 °FScattered clouds.5 mph24%30.12 "Hg25 mi
1:50 PM88 °FScattered clouds.5 mph24%30.15 "Hg22 mi
12:50 PM86 °FPartly sunny.3 mph29%30.18 "Hg19 mi
11:50 AM82 °FPassing clouds.1 mph42%30.18 "Hg19 mi
10:50 AM75 °FPartly sunny.2 mph57%30.21 "Hg19 mi
9:50 AM73 °FPartly sunny.2 mph61%30.21 "Hg16 mi
8:50 AM66 °FPartly sunny.2 mph73%30.24 "Hg16 mi
7:50 AM63 °FPartly sunny.1 mph77%30.24 "Hg16 mi
6:50 AM61 °FPartly sunny.1 mph83%30.24 "Hg12 mi
5:50 AM59 °FPassing clouds.1 mph88%30.24 "Hg12 mi
10:50 PM
Sat, Jul 4
70 °FPassing clouds.2 mph69%30.24 "Hg19 mi
9:50 PM75 °FPassing clouds.5 mph57%30.24 "Hg19 mi
8:50 PM73 °FPassing clouds.5 mph69%30.21 "Hg19 mi
Weather by CustomWeather, © 2015

See weather overviewHow to use our weather pages